• în Republica Moldova
  • Lista ţărilor
  • Pe 7 zile
  • Temperatura apei
  • Hartă satelitară
  • Meteo pe hartă
  • Widget-uri
  • user-avatar
    Intrare

    Meteo pe oră la Ischgl

    Astăzi, 22 August, Marţi

    Timp Temperatura Precipitaţii Vânt Presiune Umiditate
    00:00 +2°C° 0 mm 1 m/s 577 mmHg 85%
    01:00 +2°C° 0 mm 1 m/s 577 mmHg 85%
    02:00 +2°C° 0 mm 1 m/s 577 mmHg 84%
    03:00 +2°C° 0 mm 1 m/s 577 mmHg 83%
    04:00 +2°C° 0 mm 1 m/s 577 mmHg 82%
    05:00 +3°C° 0 mm 1 m/s 577 mmHg 77%
    06:00 +5°C° 0 mm 1 m/s 578 mmHg 72%
    07:00 +6°C° 0 mm 1 m/s 579 mmHg 68%
    08:00 +8°C° 0 mm 1 m/s 580 mmHg 61%
    09:00 +11°C° 0 mm 1 m/s 581 mmHg 55%
    10:00 +13°C° 0 mm 1 m/s 582 mmHg 48%
    11:00 +14°C° 0 mm 1 m/s 582 mmHg 47%
    12:00 +15°C° 0 mm 2 m/s 582 mmHg 45%
    13:00 +15°C° 0 mm 2 m/s 582 mmHg 44%
    14:00 +15°C° 0 mm 2 m/s 582 mmHg 46%
    15:00 +15°C° 0 mm 2 m/s 581 mmHg 48%
    16:00 +15°C° 0 mm 2 m/s 581 mmHg 50%
    17:00 +13°C° 0 mm 2 m/s 580 mmHg 61%
    18:00 +10°C° 0 mm 2 m/s 579 mmHg 72%
    19:00 +9°C° 0 mm 1 m/s 578 mmHg 83%
    20:00 +8°C° 0 mm 1 m/s 578 mmHg 86%
    21:00 +7°C° 0 mm 1 m/s 578 mmHg 89%
    22:00 +6°C° 0 mm 1 m/s 577 mmHg 93%
    23:00 +5°C° 0 mm 1 m/s 577 mmHg 90%

    Mâine, 23 August, Miercuri

    Timp Temperatura Precipitaţii Vânt Presiune Umiditate
    00:00 +5°C° 0 mm 1 m/s 577 mmHg 88%
    01:00 +5°C° 0 mm 1 m/s 577 mmHg 86%
    02:00 +5°C° 0 mm 1 m/s 576 mmHg 82%
    03:00 +4°C° 0 mm 1 m/s 576 mmHg 78%
    04:00 +4°C° 0 mm 1 m/s 576 mmHg 74%
    05:00 +6°C° 0 mm 1 m/s 577 mmHg 70%
    06:00 +7°C° 0 mm 1 m/s 578 mmHg 66%
    07:00 +9°C° 0 mm 1 m/s 578 mmHg 62%
    08:00 +11°C° 0 mm 1 m/s 579 mmHg 55%
    09:00 +12°C° 0 mm 1 m/s 580 mmHg 49%
    10:00 +14°C° 0 mm 1 m/s 581 mmHg 42%
    11:00 +15°C° 0 mm 1 m/s 581 mmHg 40%
    12:00 +16°C° 0 mm 1 m/s 582 mmHg 39%
    13:00 +18°C° 0 mm 1 m/s 582 mmHg 38%
    14:00 +17°C° 0,1 mm 2 m/s 582 mmHg 39%
    15:00 +16°C° 0,1 mm 2 m/s 582 mmHg 41%
    16:00 +16°C° 0,1 mm 2 m/s 581 mmHg 43%
    17:00 +14°C° 0,2 mm 2 m/s 580 mmHg 53%
    18:00 +12°C° 0,2 mm 1 m/s 580 mmHg 63%
    19:00 +10°C° 0,2 mm 1 m/s 579 mmHg 73%
    20:00 +9°C° 0,1 mm 1 m/s 579 mmHg 75%
    21:00 +8°C° 0,1 mm 1 m/s 578 mmHg 77%
    22:00 +7°C° 0,1 mm 1 m/s 578 mmHg 79%
    23:00 +7°C° 0 mm 1 m/s 578 mmHg 78%

    Poimâine, 24 August, Joi

    Timp Temperatura Precipitaţii Vânt Presiune Umiditate
    00:00 +7°C° 0 mm 1 m/s 578 mmHg 78%
    01:00 +6°C° 0 mm 1 m/s 578 mmHg 77%
    02:00 +6°C° 0 mm 1 m/s 578 mmHg 76%
    03:00 +6°C° 0 mm 1 m/s 578 mmHg 76%
    04:00 +6°C° 0 mm 1 m/s 577 mmHg 75%
    05:00 +7°C° 0 mm 1 m/s 578 mmHg 73%
    06:00 +9°C° 0 mm 1 m/s 579 mmHg 71%
    07:00 +10°C° 0 mm 1 m/s 580 mmHg 69%
    08:00 +12°C° 0 mm 1 m/s 581 mmHg 61%
    09:00 +14°C° 0 mm 1 m/s 582 mmHg 54%
    10:00 +15°C° 0 mm 0 m/s 583 mmHg 46%
    11:00 +18°C° 0 mm 1 m/s 583 mmHg 43%
    12:00 +19°C° 0 mm 1 m/s 583 mmHg 41%
    13:00 +19°C° 0 mm 1 m/s 584 mmHg 38%
    14:00 +19°C° 0,3 mm 1 m/s 583 mmHg 40%
    15:00 +19°C° 0,3 mm 1 m/s 583 mmHg 43%
    16:00 +17°C° 0,3 mm 2 m/s 582 mmHg 45%
    17:00 +15°C° 0,4 mm 1 m/s 582 mmHg 56%
    18:00 +13°C° 0,4 mm 1 m/s 581 mmHg 67%
    19:00 +11°C° 0,4 mm 1 m/s 580 mmHg 78%
    20:00 +10°C° 0,2 mm 1 m/s 580 mmHg 79%
    21:00 +10°C° 0,2 mm 1 m/s 580 mmHg 80%
    22:00 +9°C° 0,2 mm 1 m/s 580 mmHg 82%
    23:00 +8°C° 0 mm 2 m/s 580 mmHg 82%

    25 August, Vineri

    Timp Temperatura Precipitaţii Vânt Presiune Umiditate
    00:00 +8°C° 0 mm 2 m/s 580 mmHg 83%
    01:00 +8°C° 0 mm 2 m/s 580 mmHg 83%
    02:00 +7°C° 0 mm 2 m/s 579 mmHg 84%
    03:00 +7°C° 0 mm 2 m/s 579 mmHg 84%
    04:00 +7°C° 0 mm 2 m/s 579 mmHg 85%
    05:00 +8°C° 0 mm 1 m/s 579 mmHg 82%
    06:00 +9°C° 0 mm 1 m/s 579 mmHg 80%
    07:00 +10°C° 0 mm 1 m/s 580 mmHg 77%
    08:00 +12°C° 0 mm 1 m/s 581 mmHg 67%
    09:00 +15°C° 0 mm 1 m/s 582 mmHg 58%
    10:00 +18°C° 0 mm 1 m/s 583 mmHg 48%
    11:00 +19°C° 0,1 mm 1 m/s 583 mmHg 46%
    12:00 +19°C° 0,1 mm 1 m/s 583 mmHg 44%
    13:00 +20°C° 0,1 mm 1 m/s 584 mmHg 41%
    14:00 +20°C° 0,3 mm 1 m/s 583 mmHg 44%
    15:00 +19°C° 0,3 mm 1 m/s 583 mmHg 47%
    16:00 +19°C° 0,3 mm 1 m/s 582 mmHg 49%
    17:00 +16°C° 0,3 mm 1 m/s 582 mmHg 59%
    18:00 +14°C° 0,3 mm 1 m/s 581 mmHg 69%
    19:00 +12°C° 0,3 mm 1 m/s 580 mmHg 79%
    20:00 +12°C° 0,4 mm 1 m/s 580 mmHg 80%
    21:00 +11°C° 0,4 mm 1 m/s 580 mmHg 81%
    22:00 +10°C° 0,4 mm 2 m/s 580 mmHg 82%
    23:00 +9°C° 0,1 mm 2 m/s 580 mmHg 82%

    26 August, Sâmbătă

    Timp Temperatura Precipitaţii Vânt Presiune Umiditate
    00:00 +9°C° 0,1 mm 2 m/s 580 mmHg 82%
    01:00 +9°C° 0,1 mm 2 m/s 579 mmHg 82%
    02:00 +9°C° 0 mm 2 m/s 579 mmHg 82%
    03:00 +9°C° 0 mm 2 m/s 579 mmHg 81%
    04:00 +8°C° 0 mm 2 m/s 579 mmHg 81%
    05:00 +9°C° 0 mm 2 m/s 579 mmHg 79%
    06:00 +10°C° 0 mm 2 m/s 579 mmHg 77%
    07:00 +10°C° 0 mm 2 m/s 580 mmHg 75%
    08:00 +13°C° 0 mm 2 m/s 581 mmHg 65%
    09:00 +16°C° 0 mm 2 m/s 582 mmHg 56%
    10:00 +19°C° 0 mm 1 m/s 583 mmHg 47%
    11:00 +18°C° 0,2 mm 2 m/s 583 mmHg 45%
    12:00 +19°C° 0,2 mm 2 m/s 583 mmHg 43%
    13:00 +20°C° 0,2 mm 2 m/s 583 mmHg 40%
    14:00 +19°C° 0,2 mm 2 m/s 583 mmHg 44%
    15:00 +19°C° 0,2 mm 2 m/s 582 mmHg 47%
    16:00 +18°C° 0,2 mm 2 m/s 582 mmHg 50%
    17:00 +17°C° 0,7 mm 2 m/s 581 mmHg 59%
    18:00 +15°C° 0,7 mm 1 m/s 580 mmHg 68%
    19:00 +13°C° 0,7 mm 1 m/s 579 mmHg 77%
    20:00 +12°C° 0,2 mm 1 m/s 579 mmHg 77%
    21:00 +10°C° 0,2 mm 2 m/s 579 mmHg 78%
    22:00 +10°C° 0,2 mm 2 m/s 579 mmHg 79%
    23:00 +9°C° 0 mm 2 m/s 579 mmHg 78%

    27 August, Duminică

    Timp Temperatura Precipitaţii Vânt Presiune Umiditate
    00:00 +9°C° 0 mm 2 m/s 578 mmHg 77%
    01:00 +8°C° 0 mm 2 m/s 578 mmHg 76%
    02:00 +8°C° 0 mm 2 m/s 578 mmHg 74%
    03:00 +8°C° 0 mm 2 m/s 577 mmHg 72%
    04:00 +7°C° 0 mm 2 m/s 577 mmHg 70%
    05:00 +8°C° 0 mm 2 m/s 577 mmHg 69%
    06:00 +9°C° 0 mm 2 m/s 578 mmHg 68%
    07:00 +10°C° 0 mm 2 m/s 578 mmHg 67%
    08:00 +13°C° 0 mm 2 m/s 579 mmHg 59%
    09:00 +16°C° 0 mm 2 m/s 580 mmHg 50%
    10:00 +18°C° 0 mm 2 m/s 581 mmHg 42%
    11:00 +19°C° 0 mm 2 m/s 581 mmHg 40%
    12:00 +20°C° 0 mm 2 m/s 581 mmHg 38%
    13:00 +20°C° 0 mm 3 m/s 582 mmHg 37%
    14:00 +20°C° 0,1 mm 3 m/s 581 mmHg 39%
    15:00 +20°C° 0,1 mm 3 m/s 581 mmHg 41%
    16:00 +19°C° 0,1 mm 3 m/s 581 mmHg 44%
    17:00 +17°C° 0,6 mm 2 m/s 580 mmHg 54%
    18:00 +15°C° 0,6 mm 2 m/s 579 mmHg 65%
    19:00 +13°C° 0,6 mm 1 m/s 578 mmHg 76%
    20:00 +12°C° 0,3 mm 2 m/s 578 mmHg 77%
    21:00 +10°C° 0,3 mm 2 m/s 577 mmHg 78%
    22:00 +10°C° 0,3 mm 3 m/s 577 mmHg 78%
    23:00 +9°C° 0 mm 3 m/s 577 mmHg 77%
    Arată mai mult